Location: Newark
(34.3481°N, 134.0494°E)
Time: 11:36:00
(UTC+00:00)

Vanguard 3 - Pass Details

Date: 21 January 2020
Orbit: 508 x 3263 km, 33.3° (Epoch: 22 February)

Event Time Altitude Azimuth Distance (km) Brightness Sun altitude
Rises 10:18:21 0° 250° (WSW) 7,218 13.3 -23.9°
Reaches altitude 10° 10:23:17 10° 249° (WSW) 6,187 12.6 -24.9°
Maximum altitude 10:42:47 79° 167° (SSE) 2,685 9.5 -28.9°
Enters shadow 10:48:20 47° 91° (E) 2,873 9.4 -30.0°
